Aeroporto :
LOGIN :

Iscrizione | Disclaimer

   EN    FR    IT 

 










Sommario :    VFR   VFR Marginale   IFR   IFR Intensivo   IFR Molto Intensivo
Visibilità : 
Base nubi : 
>= 8 km
>= 3000ft
5 / 8 km
1000 / 3000 ft
1500m / 5 km
500 / 1000 ft
800 / 1500m
200 / 500 ft
< 800m
< 200 ft
Simboli :   Temporali  Nebbia  Neve Forte  Precipitazioni Forti  Vento > 20 kt
SIGMETs :   Varie  Temporali  Ghiacco  Turbolenza  Onda orograficha  Ceneri Vulcaniche







- Altitudine del aeroporto : 915 ft
- Codice IATA : LUG


LSZA - Lugano

ULTIMO METAR :
  • 220720Z VRB02KT 9000 FEW050 25/20 Q1024 NOSIG

METARs OBSOLETI :
  • 220650Z VRB02KT 9000 FEW050 25/21 Q1024 NOSIG
  • 220620Z 00000KT 9000 FEW050 24/21 Q1024 NOSIG
  • 220550Z 00000KT 9000 FEW050 23/20 Q1023 NOSIG
  • 220520Z 35002KT 9000 FEW050 22/20 Q1023 NOSIG
  • 220450Z VRB01KT 9000 FEW050 22/20 Q1023 NOSIG

TAF TAF LSZA
Valido dal 22 a 06 ore il 22 a 15 ore UTC


220525Z 2206/2215 VRB03KT 9999 FEW050
ATIS : +41 22 417 40 88
Nessun NOTAM noto per questo aeroporto.



MetMap, La meteo Aeronautica in un colpo d'occhio ! - Copyright ORBIFLY Dicembre 2007 - Disclaimer

ORBIFLY MET'MAP TEAM :

Programmazione e sviluppo : Alexandra Zaïnal
Concezione e sviluppo : Baudouin d'Aumeries
Co-Programmazione e sviluppo : Marc-Olivier Méhu
Supporto tecnico e logistico : Manuel Goepfert
Aiuto per la traduzione : Arnaldo La Scala

Contatto : metmap@orbifly.com




FONTI E CREDITI :

   NOAA